When you browse on this site, cookies collect data to enhance your experience and personalize the content and advertising you see.
Visit our Privacy Policy to learn more. By continuing to use the site, you agree to this use of cookies and data.
  • In Czech Republic
  • List of Countries
  • For 7 days
  • Water Temperature
  • Satellite Maps
  • Weather Map
  • Weather Widgets
  • user-avatar
    Login

    Hourly Weather Plino

    Today, 20 November, Tuesday

    Time Temperature Precipitation Wind Pressure Humidity
    00:00 -2°C° 0 mm 3 mps 760 mmHg 92%
    01:00 -2°C° 0 mm 2 mps 760 mmHg 92%
    02:00 -3°C° 0 mm 2 mps 760 mmHg 93%
    03:00 -3°C° 0 mm 2 mps 760 mmHg 94%
    04:00 -4°C° 0 mm 2 mps 760 mmHg 94%
    05:00 -4°C° 0 mm 2 mps 760 mmHg 95%
    06:00 -4°C° 0 mm 2 mps 760 mmHg 95%
    07:00 -4°C° 0 mm 2 mps 760 mmHg 94%
    08:00 -5°C° 0 mm 2 mps 760 mmHg 94%
    09:00 -2°C° 0 mm 1 mps 760 mmHg 90%
    10:00 -1°C° 0 mm 1 mps 760 mmHg 86%
    11:00 -1°C° 0 mm 1 mps 759 mmHg 82%
    12:00 0°C° 0 mm 1 mps 759 mmHg 81%
    13:00 0°C° 0 mm 1 mps 759 mmHg 79%
    14:00 0°C° 0 mm 1 mps 759 mmHg 78%
    15:00 0°C° 0 mm 1 mps 759 mmHg 81%
    16:00 -1°C° 0 mm 1 mps 759 mmHg 83%
    17:00 -2°C° 0 mm 1 mps 759 mmHg 86%
    18:00 -2°C° 0 mm 1 mps 758 mmHg 87%
    19:00 -2°C° 0 mm 1 mps 758 mmHg 87%
    20:00 -2°C° 0 mm 1 mps 758 mmHg 88%
    21:00 -2°C° 0 mm 1 mps 758 mmHg 87%
    22:00 -2°C° 0 mm 1 mps 758 mmHg 87%
    23:00 -2°C° 0 mm 1 mps 758 mmHg 87%

    Tomorrow, 21 November, Wednesday

    Time Temperature Precipitation Wind Pressure Humidity
    00:00 -2°C° 0 mm 1 mps 758 mmHg 86%
    01:00 -2°C° 0 mm 1 mps 758 mmHg 85%
    02:00 -2°C° 0 mm 1 mps 758 mmHg 84%
    03:00 -2°C° 0 mm 1 mps 758 mmHg 83%
    04:00 -2°C° 0 mm 1 mps 758 mmHg 82%
    05:00 -2°C° 0 mm 1 mps 758 mmHg 82%
    06:00 -2°C° 0 mm 1 mps 758 mmHg 82%
    07:00 -2°C° 0 mm 1 mps 758 mmHg 83%
    08:00 -2°C° 0 mm 1 mps 758 mmHg 84%
    09:00 -3°C° 0 mm 2 mps 758 mmHg 83%
    10:00 -2°C° 0 mm 2 mps 758 mmHg 83%
    11:00 -1°C° 0 mm 2 mps 758 mmHg 83%
    12:00 -1°C° 0 mm 2 mps 758 mmHg 82%
    13:00 -1°C° 0 mm 2 mps 758 mmHg 82%
    14:00 +1°C° 0 mm 2 mps 758 mmHg 81%
    15:00 -1°C° 0 mm 2 mps 758 mmHg 82%
    16:00 -1°C° 0 mm 2 mps 758 mmHg 82%
    17:00 -1°C° 0 mm 2 mps 758 mmHg 82%
    18:00 -2°C° 0 mm 2 mps 758 mmHg 83%
    19:00 -2°C° 0 mm 2 mps 758 mmHg 84%
    20:00 0°C° 0 mm 1 mps 758 mmHg 84%
    21:00 -1°C° 0 mm 1 mps 758 mmHg 87%
    22:00 -1°C° 0 mm 1 mps 758 mmHg 89%
    23:00 -2°C° 0 mm 1 mps 758 mmHg 92%

    Day after tomorrow, 22 November, Thursday

    Time Temperature Precipitation Wind Pressure Humidity
    00:00 -2°C° 0 mm 1 mps 758 mmHg 93%
    01:00 -2°C° 0 mm 1 mps 758 mmHg 94%
    02:00 -4°C° 0 mm 2 mps 758 mmHg 94%
    03:00 -4°C° 0 mm 2 mps 758 mmHg 95%
    04:00 -4°C° 0 mm 2 mps 758 mmHg 95%
    05:00 -4°C° 0 mm 2 mps 757 mmHg 95%
    06:00 -4°C° 0 mm 2 mps 757 mmHg 95%
    07:00 -4°C° 0 mm 2 mps 757 mmHg 95%
    08:00 -4°C° 0 mm 2 mps 757 mmHg 95%
    09:00 -4°C° 0 mm 2 mps 757 mmHg 91%
    10:00 -4°C° 0 mm 3 mps 757 mmHg 86%
    11:00 -2°C° 0 mm 3 mps 757 mmHg 82%
    12:00 -2°C° 0 mm 3 mps 757 mmHg 80%
    13:00 -2°C° 0 mm 4 mps 756 mmHg 78%
    14:00 -2°C° 0 mm 4 mps 756 mmHg 76%
    15:00 -3°C° 0 mm 4 mps 756 mmHg 80%
    16:00 -3°C° 0 mm 4 mps 756 mmHg 83%
    17:00 -4°C° 0 mm 4 mps 756 mmHg 87%
    18:00 -4°C° 0 mm 4 mps 756 mmHg 88%
    19:00 -4°C° 0 mm 4 mps 756 mmHg 89%
    20:00 -4°C° 0 mm 4 mps 756 mmHg 90%
    21:00 -3°C° 0 mm 4 mps 756 mmHg 89%
    22:00 -2°C° 0 mm 3 mps 756 mmHg 88%
    23:00 -2°C° 0 mm 3 mps 756 mmHg 87%

    23 November, Friday

    Time Temperature Precipitation Wind Pressure Humidity
    00:00 -2°C° 0 mm 3 mps 756 mmHg 88%
    01:00 -2°C° 0 mm 2 mps 757 mmHg 89%
    02:00 -2°C° 0 mm 2 mps 757 mmHg 90%
    03:00 -2°C° 0 mm 2 mps 757 mmHg 91%
    04:00 -2°C° 0 mm 2 mps 757 mmHg 92%
    05:00 -2°C° 0 mm 2 mps 757 mmHg 92%
    06:00 0°C° 0 mm 1 mps 758 mmHg 93%
    07:00 0°C° 0 mm 1 mps 758 mmHg 94%
    08:00 0°C° 0 mm 1 mps 758 mmHg 95%
    09:00 0°C° 0 mm 1 mps 758 mmHg 92%
    10:00 +1°C° 0 mm 1 mps 759 mmHg 89%
    11:00 +1°C° 0 mm 1 mps 759 mmHg 86%
    12:00 +1°C° 0 mm 1 mps 759 mmHg 85%
    13:00 -1°C° 0 mm 2 mps 759 mmHg 84%
    14:00 -1°C° 0 mm 2 mps 759 mmHg 83%
    15:00 -1°C° 0 mm 2 mps 758 mmHg 83%
    16:00 -1°C° 0 mm 2 mps 758 mmHg 84%
    17:00 -2°C° 0 mm 2 mps 758 mmHg 85%
    18:00 -2°C° 0 mm 2 mps 758 mmHg 86%
    19:00 -2°C° 0 mm 2 mps 758 mmHg 87%
    20:00 -2°C° 0 mm 3 mps 757 mmHg 88%
    21:00 -4°C° 0 mm 3 mps 757 mmHg 89%
    22:00 -4°C° 0 mm 3 mps 757 mmHg 90%
    23:00 -5°C° 0 mm 3 mps 756 mmHg 91%

    24 November, Saturday

    Time Temperature Precipitation Wind Pressure Humidity
    00:00 -5°C° 0 mm 3 mps 756 mmHg 91%
    01:00 -5°C° 0 mm 3 mps 755 mmHg 91%
    02:00 -5°C° 0 mm 3 mps 755 mmHg 90%
    03:00 -5°C° 0 mm 3 mps 755 mmHg 89%
    04:00 -5°C° 0 mm 3 mps 754 mmHg 88%
    05:00 -6°C° 0 mm 3 mps 754 mmHg 87%
    06:00 -6°C° 0 mm 3 mps 753 mmHg 86%
    07:00 -6°C° 0 mm 3 mps 753 mmHg 86%
    08:00 -6°C° 0 mm 3 mps 753 mmHg 85%
    09:00 -5°C° 0 mm 3 mps 752 mmHg 82%
    10:00 -5°C° 0 mm 3 mps 752 mmHg 79%
    11:00 -4°C° 0 mm 3 mps 752 mmHg 75%
    12:00 -3°C° 0 mm 2 mps 752 mmHg 75%
    13:00 -2°C° 0 mm 2 mps 752 mmHg 74%
    14:00 -2°C° 0 mm 2 mps 751 mmHg 74%
    15:00 -3°C° 0 mm 2 mps 751 mmHg 76%
    16:00 -1°C° 0 mm 1 mps 751 mmHg 79%
    17:00 -2°C° 0 mm 1 mps 751 mmHg 81%
    18:00 -2°C° 0 mm 1 mps 750 mmHg 81%
    19:00 -2°C° 0 mm 1 mps 750 mmHg 82%
    20:00 -2°C° 0 mm 1 mps 750 mmHg 82%
    21:00 -2°C° 0 mm 1 mps 750 mmHg 82%
    22:00 -2°C° 0 mm 1 mps 750 mmHg 82%
    23:00 -2°C° 0 mm 1 mps 750 mmHg 83%

    25 November, Sunday

    Time Temperature Precipitation Wind Pressure Humidity
    00:00 -2°C° 0 mm 1 mps 750 mmHg 84%
    01:00 -2°C° 0 mm 1 mps 750 mmHg 85%
    02:00 -2°C° 0 mm 1 mps 750 mmHg 86%
    03:00 -2°C° 0 mm 1 mps 750 mmHg 87%
    04:00 -2°C° 0 mm 1 mps 750 mmHg 89%
    05:00 -3°C° 0 mm 0 mps 750 mmHg 90%
    06:00 -3°C° 0 mm 0 mps 750 mmHg 91%
    07:00 -3°C° 0 mm 0 mps 750 mmHg 92%
    08:00 -3°C° 0 mm 0 mps 750 mmHg 92%
    09:00 -2°C° 0 mm 1 mps 750 mmHg 90%
    10:00 -1°C° 0 mm 1 mps 750 mmHg 88%
    11:00 -1°C° 0 mm 1 mps 750 mmHg 86%
    12:00 0°C° 0 mm 1 mps 750 mmHg 86%
    13:00 0°C° 0 mm 1 mps 750 mmHg 86%
    14:00 -2°C° 0 mm 2 mps 749 mmHg 86%
    15:00 -3°C° 0 mm 2 mps 749 mmHg 88%
    16:00 -3°C° 0 mm 2 mps 749 mmHg 89%
    17:00 -3°C° 0 mm 2 mps 749 mmHg 91%
    18:00 -3°C° 0 mm 2 mps 749 mmHg 90%
    19:00 -3°C° 0 mm 2 mps 749 mmHg 89%
    20:00 -3°C° 0 mm 2 mps 749 mmHg 88%
    21:00 -4°C° 0 mm 3 mps 749 mmHg 87%
    22:00 -5°C° 0 mm 3 mps 749 mmHg 86%
    23:00 -5°C° 0 mm 3 mps 748 mmHg 85%
    Show more